x

Isle Of Portland (03857) Weather Station

10:00 - Tue 3rd Mar 2015 All times are GMT.

  • Wind
    26mph, 36mph gusts
  • Ar Temp 43°f
  • Sea Pressure 1023mb
  • Isle Of Portland
  • Isle Of Portland

More Historic Weather Station data

Upgrade to MSW Pro to gain access to the past 30 days of data for over 8000 Wavebouys and Weather Stations around the globe.

Join Pro

Comparision Forecast

View Surf forecast
   
Ter 03/03 10:00 26 36 mph 1023mb 43f
9:00 25 34 mph 1022mb 43f
8:00 24 34 mph 1022mb 43f
7:00 24 37 mph 1021mb 43f
6:00 16
mph
1021mb 43f
5:00 21 29 mph 1020mb 43f
4:00 24 37 mph 1019mb 44f
3:00 26 39 mph 1019mb 44f
2:00 25 32 mph 1018mb 45f
1:00 18 36 mph 1018mb 45f
12:00 25 33 mph 1018mb 44f
11:00 23 33 mph 1017mb 45f
10:00 21 32 mph 1016mb 44f
9:00 23 31 mph 1015mb 44f
8:00 24 33 mph 1015mb 44f
7:00 23 32 mph 1014mb 44f
6:00 25 36 mph 1013mb 44f
5:00 29 51 mph 1013mb 43f
4:00 24 33 mph 1014mb 45f
3:00 24 33 mph 1014mb 45f
2:00 26 36 mph 1015mb 46f
1:00 22 38 mph 1016mb 45f
12:00 22 33 mph 1016mb 46f
Seg 03/02 11:00 26 36 mph 1016mb 46f
10:00 24 34 mph 1017mb 45f
9:00 21 30 mph 1016mb 45f
8:00 23 31 mph 1016mb 44f
7:00 23 32 mph 1016mb 43f
6:00 23 32 mph 1015mb 43f
5:00 23 31 mph 1015mb 42f
4:00 15
mph
1014mb 42f
3:00 18 31 mph 1014mb 44f
2:00 26 45 mph 1013mb 40f
1:00 28 48 mph 1012mb 42f
12:00 28 44 mph 1012mb 43f
11:00 29 46 mph 1011mb 44f
10:00 36 48 mph 1009mb 43f
9:00 25 52 mph 1008mb 41f
8:00 33 48 mph 1007mb 40f
7:00 30 41 mph 1006mb 42f
6:00 31 41 mph 1005mb 44f
5:00 29 36 mph 1004mb 44f
4:00 24 36 mph 1004mb 44f
3:00 26 34 mph 1004mb 44f
2:00 24 38 mph 1004mb 44f
1:00 28 43 mph 1004mb 44f
12:00 32 45 mph 1003mb 44f
Dom 03/01 11:00 32 41 mph 1003mb 45f
10:00 24 45 mph 1002mb 46f
9:00 29 48 mph 1002mb 45f
8:00 22 37 mph 1002mb 44f
7:00 29 39 mph 1001mb 46f
6:00 26 32 mph 1000mb 45f
5:00 23 46 mph 1000mb 44f
4:00 28 36 mph 1000mb 48f
3:00 25 38 mph 1001mb 49f
2:00 28 34 mph 1002mb 50f
1:00 26 34 mph 1003mb 48f
12:00 25 33 mph 1004mb 48f
11:00 17 32 mph 1005mb 47f
10:00 23 30 mph 1005mb 47f
9:00 21 33 mph 1005mb 45f
8:00 26 36 mph 1004mb 47f
7:00 26 38 mph 1003mb 46f
6:00 29 45 mph 1003mb 46f
5:00 30 39 mph 1002mb 48f
4:00 31 38 mph 1002mb 47f
3:00 28 37 mph 1002mb 47f
2:00 25 37 mph 1001mb 48f
1:00 28 40 mph 1001mb 49f
12:00 28 36 mph 1000mb 49f
Sáb 02/28 11:00 29 38 mph 1000mb 49f
10:00 32 40 mph 1000mb 49f
9:00 30 41 mph 1000mb 50f
8:00 29 38 mph 1001mb 49f
7:00 28 36 mph 1002mb 49f
6:00 21 29 mph 1003mb 48f
5:00 18
mph
1004mb 48f
4:00 17
mph
1006mb 48f
3:00 17
mph
1006mb 48f
2:00 19
mph
1007mb 49f
1:00 19
mph
1008mb 49f
12:00 15
mph
1009mb 49f
11:00 15
mph
1009mb 48f
10:00 13
mph
1010mb 48f
9:00 19 29 mph 1010mb 47f
8:00 22 31 mph 1011mb 47f
7:00 21 31 mph 1011mb 46f
6:00 22 29 mph 1011mb 46f
4:00 19 29 mph 1013mb 45f
3:00 22 30 mph 1014mb 46f
2:00 19
mph
1015mb 46f
1:00 21 30 mph 1016mb 46f
12:00 19 29 mph 1017mb 46f